Wind_Speed
5 5 5 5 5 6 6 6 7 8 8 8 8 8 8 9 10 10 10 10 10 10 10 10 9 9 9 9 8 8 8 8 9 9 10 11 12 12 13 14 14 15 15 15 15 16 16 16 16 17 17 17 17 17 18 18 18 19 19 20 20 20 21 21 21 20 19 19 18 16 15 15 15 15 14 14 14 13 13 13 13 12 12 12 12
5 4 5 5 5 5 5 5 6 7 8 8 9 9 9 9 10 11 10 10 10 9 9 9 9 9 9 9 8 8 8 8 8 9 9 10 11 12 13 14 14 15 15 15 15 16 16 17 16 16 17 17 18 18 18 18 18 19 19 19 20 20 21 21 21 20 20 18 17 16 15 15 15 15 14 13 13 13 13 13 13 12 12 12 12
4 4 5 5 4 4 5 5 6 7 7 8 9 10 9 10 10 11 11 10 9 9 9 8 8 8 8 8 8 8 8 8 9 9 10 10 11 12 13 13 14 14 15 15 16 16 16 17 16 16 16 17 17 17 17 18 18 18 18 19 19 20 20 21 21 21 20 19 18 17 16 15 15 15 14 14 13 13 13 13 13 13 12 12 12
4 5 5 5 4 4 6 6 7 7 8 9 10 10 10 10 10 10 10 9 9 9 8 8 8 8 8 8 8 9 9 9 9 9 10 10 11 12 12 13 13 13 14 15 15 16 16 16 16 16 16 16 16 16 16 17 17 17 17 18 18 19 20 20 21 20 19 19 18 18 17 16 15 16 15 15 14 14 14 13 13 13 13 13 13
4 5 5 5 5 5 6 7 7 7 8 9 9 9 9 9 9 9 9 9 9 9 9 9 8 8 8 8 8 9 9 9 9 9 10 10 11 12 12 12 12 12 13 14 15 15 16 15 15 15 15 15 15 16 16 17 17 17 17 17 17 18 18 19 20 20 20 19 19 19 18 17 16 16 16 16 15 15 15 14 14 13 14 14 15
5 5 5 5 6 6 6 7 7 7 8 8 9 9 9 9 9 9 9 10 10 9 9 9 9 9 9 8 8 8 9 9 9 9 10 10 11 11 11 11 11 12 12 13 14 15 15 15 14 15 15 15 15 15 16 17 17 17 17 17 17 17 18 19 20 21 21 21 20 20 19 18 17 17 17 17 16 16 16 15 15 14 14 15 15
5 5 5 5 6 6 6 7 7 7 8 8 8 9 9 9 10 10 10 10 10 10 10 10 10 9 9 9 8 8 8 8 8 9 10 10 10 11 11 11 11 11 11 12 13 14 14 14 14 15 14 14 15 15 16 17 17 17 17 17 17 18 19 20 21 21 22 22 21 20 20 18 18 18 17 17 16 15 16 17 16 16 15 16 16
6 6 6 6 6 6 7 8 8 8 9 9 9 9 9 9 9 10 10 10 10 10 10 10 10 10 9 9 9 8 8 8 8 9 9 9 10 10 10 11 11 11 11 12 13 13 14 14 14 15 15 15 15 16 17 17 17 17 17 17 18 18 19 20 21 21 21 21 20 19 19 19 19 19 18 17 15 15 18 18 17 17 17 17 17
7 7 7 7 7 8 9 9 9 9 9 9 9 9 9 9 9 10 10 10 10 10 10 10 10 9 9 9 8 8 8 8 8 9 10 9 9 9 9 10 11 11 12 12 13 13 13 13 14 14 15 15 16 16 16 17 17 17 17 17 17 17 17 17 18 19 19 19 18 18 18 19 19 19 19 18 16 17 19 18 18 17 17 18 18
7 8 8 8 9 9 9 9 9 9 9 9 9 9 9 9 10 10 11 11 11 11 10 10 9 9 8 8 7 7 8 8 7 8 9 8 8 8 8 9 10 10 11 11 11 12 12 12 13 13 14 15 15 16 16 17 17 17 17 16 16 15 15 15 16 16 17 17 16 17 18 18 19 19 20 19 17 18 19 18 18 18 17 18 18
8 9 9 9 9 9 9 10 10 9 9 9 9 9 9 9 10 11 11 11 11 10 10 9 9 8 8 7 7 7 7 8 8 8 8 8 8 8 7 8 9 9 10 10 10 11 11 12 12 13 13 14 14 14 15 16 16 16 15 15 15 14 14 15 15 15 15 15 15 15 16 17 18 19 19 20 19 19 18 19 19 19 18 18 18
8 9 10 9 9 9 10 10 10 9 9 9 9 10 10 10 10 10 10 10 10 10 9 9 9 9 8 8 8 7 7 7 7 7 8 8 8 8 7 7 8 8 9 9 10 10 11 11 12 12 13 13 13 14 14 15 15 15 14 14 14 14 14 14 15 15 15 15 14 14 15 16 17 18 20 20 21 20 19 20 20 20 19 18 18
8 9 9 9 9 9 9 9 9 9 9 10 10 10 9 9 10 10 9 8 8 9 9 9 9 9 9 8 8 8 8 8 7 8 8 8 9 9 9 8 8 8 8 9 9 10 10 11 11 12 12 12 13 14 15 15 15 15 15 15 14 14 14 15 15 15 16 15 15 14 14 15 16 17 19 20 20 20 20 21 21 19 21 20 18
8 9 8 8 8 8 8 8 8 9 9 10 9 9 8 9 9 9 9 8 8 8 9 9 9 10 9 8 8 8 9 9 8 8 9 9 9 10 10 10 9 9 9 9 10 11 11 11 12 12 12 13 13 14 15 15 15 15 15 15 15 15 15 16 16 16 16 16 16 15 14 14 15 17 19 20 20 20 20 22 21 19 20 20 19
8 8 8 7 7 7 7 7 8 8 9 9 8 8 7 7 7 8 8 8 8 8 9 8 8 9 10 9 9 8 8 9 9 9 9 9 10 10 11 11 11 10 10 10 11 11 12 12 12 12 13 13 14 16 16 16 15 15 16 16 16 15 16 17 17 17 17 17 18 17 16 15 16 18 20 20 21 22 21 22 22 20 20 20 20
7 7 7 6 6 6 6 7 7 7 7 7 7 7 7 6 6 6 7 7 8 8 9 9 8 9 9 10 9 8 8 9 9 9 9 10 11 11 12 12 12 12 12 12 13 13 13 14 13 13 14 14 16 17 17 17 16 16 17 17 17 17 17 18 17 17 18 18 19 19 18 18 18 20 20 21 22 23 23 23 23 21 20 21 21
8 8 7 6 6 6 6 6 6 5 6 6 6 6 6 6 6 7 7 8 8 8 9 10 9 9 9 9 9 8 8 9 9 10 11 11 12 13 13 14 14 14 15 15 16 16 16 16 16 16 16 16 17 18 18 18 18 18 18 19 19 19 19 19 19 18 19 19 19 19 19 19 20 21 21 22 23 24 24 24 25 23 20 21 21
8 8 8 7 7 7 6 5 5 5 5 6 6 7 7 7 8 8 8 9 9 9 10 10 10 9 9 9 8 8 7 8 9 10 11 12 13 14 14 14 16 17 17 18 18 19 19 19 19 19 18 18 18 19 19 19 19 19 20 20 21 20 19 19 20 20 20 20 20 20 20 20 21 22 22 23 23 25 25 25 26 25 22 20 21
8 8 8 8 7 6 5 5 5 6 7 8 8 9 10 10 10 10 10 11 11 12 12 12 12 11 10 9 9 8 8 8 9 10 11 12 12 13 14 15 16 17 18 19 20 20 21 21 21 21 20 20 20 20 19 19 20 20 21 22 24 22 18 19 20 20 20 20 20 21 21 21 21 21 21 22 23 25 26 26 26 26 24 20 20
8 8 8 7 7 6 6 7 8 9 10 10 11 12 12 12 12 12 12 13 13 13 14 14 13 12 12 11 11 10 10 10 11 11 12 12 13 13 14 16 17 18 18 18 19 20 21 21 22 22 22 22 22 21 21 21 21 21 22 23 25 22 19 20 20 19 19 19 19 19 20 21 21 21 21 21 23 25 26 26 26 26 25 21 20
7 7 7 7 7 8 9 10 11 11 11 12 12 13 13 13 14 13 13 13 13 13 14 13 13 13 13 13 13 13 13 13 13 13 14 14 14 14 15 16 17 17 18 18 18 19 19 20 21 21 22 22 23 23 23 22 22 23 24 24 25 23 20 21 20 19 19 19 19 19 20 21 21 21 21 22 23 25 26 25 25 26 25 22 21
7 7 8 8 9 9 10 11 11 11 12 12 12 12 12 12 13 13 12 12 12 12 12 12 13 13 14 14 14 15 15 16 16 16 16 16 16 16 17 17 17 17 18 18 19 19 19 20 20 20 21 21 22 24 24 23 24 24 25 26 26 25 23 22 21 21 21 20 20 19 20 21 21 21 22 24 25 27 27 25 25 26 24 22 22
8 8 9 9 10 10 10 11 11 11 11 11 11 11 11 11 12 12 12 13 13 12 12 13 14 15 15 16 16 16 17 17 17 17 17 17 18 18 19 19 19 19 19 20 20 21 21 21 21 21 21 21 22 24 24 24 24 24 25 26 27 27 26 24 23 22 22 22 22 21 21 21 21 21 22 23 24 24 24 23 25 25 22 21 23
9 9 9 9 10 10 10 11 11 11 11 11 11 11 11 12 13 13 13 13 14 14 14 14 15 15 16 16 17 17 17 18 18 18 19 19 20 20 21 21 21 21 21 21 22 22 23 23 23 23 22 22 23 24 24 24 23 24 24 25 26 27 27 26 26 25 24 24 23 22 22 21 21 21 21 21 19 16 15 18 21 20 17 18 20
9 8 9 9 9 9 10 10 10 10 9 10 10 11 12 12 13 14 14 14 15 15 15 15 15 16 16 17 17 18 18 19 19 20 21 21 22 22 23 23 23 23 23 23 24 24 24 24 24 24 24 24 24 25 24 24 23 23 24 25 25 26 27 27 27 27 26 26 25 24 23 22 21 22 22 20 16 14 13 14 16 16 14 16 18
9 8 8 8 9 9 9 9 9 9 9 10 11 11 12 13 14 15 15 15 16 16 17 17 17 17 18 18 19 20 20 21 21 21 22 22 23 24 24 24 24 24 24 24 24 25 26 26 26 26 26 26 26 26 26 25 24 24 23 24 25 25 26 27 28 27 27 27 27 27 25 24 23 23 24 20 16 16 15 14 14 15 14 16 17
9 8 8 8 9 9 9 9 10 10 11 12 13 13 14 15 16 16 17 17 18 18 19 19 19 20 20 20 20 21 21 21 21 22 22 23 23 23 24 24 24 25 25 24 24 25 25 26 27 28 28 28 28 28 27 27 27 25 24 24 25 25 25 26 27 27 27 26 27 28 28 26 25 25 25 20 17 17 16 14 15 15 14 16 16
8 8 8 8 9 9 9 10 11 12 12 13 14 15 16 16 17 17 18 18 19 19 20 20 20 20 21 21 21 22 22 22 22 23 24 24 25 25 25 26 26 26 26 27 26 26 26 26 27 28 29 30 30 30 29 29 28 28 26 24 24 25 24 25 26 26 26 26 26 28 29 27 26 27 26 21 16 16 15 14 15 15 14 15 15
8 7 8 8 9 9 10 11 12 12 13 14 15 15 16 16 17 17 18 19 19 20 20 21 21 21 22 22 23 23 24 24 24 25 25 25 26 27 27 28 28 28 28 29 29 29 29 29 29 29 30 30 31 31 31 30 30 30 29 27 25 25 24 24 25 26 27 26 26 27 28 27 26 27 26 21 15 15 15 15 16 15 15 14 13
6 7 8 9 10 10 11 12 13 13 14 15 15 16 16 16 17 18 19 20 20 21 21 22 22 22 23 23 24 25 25 26 26 26 26 27 27 28 28 29 29 30 30 31 31 32 32 32 32 32 32 32 32 33 33 32 31 31 31 30 28 26 25 24 24 25 26 26 25 26 27 26 25 25 25 21 16 15 17 18 17 15 14 15 13
7 8 9 10 10 11 12 13 14 14 15 15 16 16 16 17 18 19 20 21 22 22 23 23 23 23 23 24 25 26 27 27 27 27 28 28 28 28 28 29 29 30 30 31 31 32 32 33 33 34 34 34 34 34 35 35 33 32 32 32 31 29 27 25 25 25 25 25 25 25 26 25 23 23 24 23 18 16 17 19 17 14 14 15 14
9 9 9 10 11 13 14 14 14 14 15 15 16 16 17 18 19 20 21 22 22 22 23 23 24 24 24 24 25 26 26 27 28 28 28 28 28 28 28 28 28 28 29 30 31 31 31 32 33 34 34 35 35 35 36 36 36 35 34 33 33 32 30 27 26 25 25 25 25 25 26 25 23 22 22 23 20 17 16 17 18 16 16 15 13
9 10 10 11 12 13 13 13 13 14 15 16 17 18 19 20 20 21 21 21 22 22 22 23 24 24 25 25 24 24 24 25 26 27 27 27 27 27 27 27 28 28 29 30 31 32 32 32 32 33 34 35 36 36 37 37 38 37 36 35 34 34 33 31 28 27 26 25 26 26 27 26 24 22 21 22 21 17 15 17 19 17 15 15 14
10 11 11 11 12 13 13 13 14 15 16 17 18 19 20 20 20 20 20 21 21 22 22 23 23 23 23 23 23 23 23 24 25 26 27 27 28 28 29 29 30 30 31 32 32 33 33 34 34 34 34 35 35 36 37 37 37 38 38 37 36 35 35 34 31 29 27 26 26 26 27 27 25 24 23 22 21 19 17 18 18 16 15 15 15
11 11 11 11 12 13 14 15 16 17 18 19 19 19 19 19 20 20 20 21 21 22 22 21 20 20 21 21 22 23 25 25 26 27 27 28 29 29 30 30 30 31 32 33 33 34 35 35 36 36 36 36 36 36 36 37 37 37 37 38 38 37 36 35 35 32 29 28 27 26 26 26 27 26 24 22 21 20 19 18 17 15 14 14 14
11 11 11 12 13 14 15 16 17 18 19 19 18 19 19 19 19 20 21 21 20 20 19 19 20 20 21 22 23 24 25 26 26 27 28 28 29 29 29 29 30 31 32 33 35 35 36 37 37 39 39 38 38 38 37 37 37 37 36 37 37 38 37 36 35 35 33 30 28 27 26 26 27 25 22 22 22 21 20 19 17 15 15 14 13
12 12 13 14 15 16 16 17 18 18 18 18 18 19 19 19 20 20 20 19 18 18 18 19 20 21 22 23 23 24 25 26 27 27 28 28 29 29 30 31 31 32 34 35 37 38 39 39 39 40 42 42 42 42 40 39 37 36 35 35 36 37 38 37 36 35 35 33 30 29 28 26 27 26 23 22 23 22 21 20 17 15 14 15 14
13 14 14 15 15 16 16 17 17 17 17 18 19 20 20 21 20 19 18 17 17 18 18 19 20 21 22 23 24 24 25 26 27 28 29 30 31 32 32 33 34 35 36 37 39 39 40 40 40 40 41 42 43 43 43 42 40 38 36 33 34 35 36 37 37 36 35 36 33 31 30 28 27 28 26 24 24 22 21 20 17 14 12 13 14
15 15 15 15 15 15 16 16 16 17 17 18 20 21 22 21 19 18 17 17 17 18 19 19 21 22 22 23 24 25 26 27 28 29 31 32 33 34 34 35 36 36 37 37 38 38 38 37 37 37 37 37 40 41 42 41 40 39 37 34 31 31 33 34 36 36 34 35 36 34 32 30 28 28 25 24 23 20 20 21 18 15 13 14 14
16 15 15 15 15 15 15 15 15 16 18 19 20 20 20 19 17 16 16 16 17 18 19 20 21 21 22 23 25 26 28 29 30 31 32 34 34 35 36 36 36 36 36 36 35 35 36 35 34 34 33 32 34 37 39 40 39 38 37 34 30 28 29 30 31 35 35 33 35 36 34 32 30 28 24 20 18 18 21 22 19 17 16 16 16
15 14 14 14 14 14 14 14 15 17 18 19 18 16 14 14 14 14 15 16 17 18 19 19 20 21 23 26 27 28 29 30 31 32 33 34 34 35 35 35 35 34 34 34 33 33 33 33 32 31 31 30 29 31 34 36 37 37 36 34 30 26 25 27 27 30 34 33 33 35 35 34 32 30 25 20 19 19 21 22 21 19 18 18 19
15 14 14 14 14 14 15 16 17 18 18 17 16 14 13 13 14 14 16 16 17 18 19 20 21 23 26 27 28 29 29 31 32 33 34 34 35 36 36 36 35 33 32 31 30 30 29 30 32 31 31 30 29 29 30 32 34 35 35 34 32 26 21 22 24 25 29 32 32 33 34 34 33 32 27 22 22 22 21 22 23 21 20 19 19
15 15 14 14 15 15 16 17 18 18 17 16 15 14 14 14 14 15 16 17 18 19 20 22 24 25 27 28 28 29 30 32 34 35 36 37 38 38 37 35 34 33 31 29 28 28 29 31 33 35 34 31 28 27 28 30 31 32 33 32 32 29 20 17 20 21 25 29 30 31 33 33 33 31 29 25 23 22 20 22 25 22 19 18 17
16 16 15 15 15 16 17 17 18 17 16 15 15 16 16 16 16 17 17 18 19 21 22 23 23 24 25 26 28 30 33 35 36 37 38 38 38 37 35 33 32 31 31 30 30 30 32 33 33 34 34 34 31 29 28 28 29 30 31 30 29 28 22 16 16 17 21 25 27 29 29 30 31 29 29 28 25 23 22 23 24 20 17 17 16
16 15 15 14 15 16 17 18 18 18 17 17 16 16 16 17 18 19 20 20 20 20 20 20 21 24 26 28 31 34 36 37 37 38 38 38 37 35 33 31 30 30 30 31 31 32 32 33 34 34 35 36 36 34 31 29 28 28 28 28 27 26 23 19 15 14 17 21 24 26 26 26 28 28 28 27 24 24 24 26 25 20 17 17 16
15 14 14 14 15 17 19 19 19 18 18 17 15 15 15 16 17 17 17 17 18 18 19 21 24 26 29 31 33 35 36 37 37 38 38 37 35 33 31 30 30 30 31 31 31 31 32 33 35 35 35 36 37 36 33 30 27 24 24 24 23 24 23 22 18 12 14 17 19 22 23 22 23 25 27 26 23 21 23 26 25 22 20 18 17
15 14 15 16 17 19 19 19 18 17 16 15 15 15 16 16 15 15 16 17 19 20 22 25 27 29 30 32 34 35 36 37 37 37 37 36 33 31 30 30 30 30 30 30 30 32 33 35 36 35 36 37 37 36 34 33 29 23 21 20 19 19 21 21 20 15 12 15 16 17 20 21 18 19 24 25 22 19 22 24 23 22 22 20 18
15 15 16 17 18 19 19 18 17 16 15 14 15 15 15 15 15 16 18 19 21 22 24 26 27 29 31 33 34 35 36 37 37 37 36 35 33 31 29 29 30 30 30 30 31 33 34 35 34 33 34 35 36 35 33 32 30 27 23 18 16 16 18 19 18 17 13 11 13 13 16 19 17 17 20 19 18 19 23 24 22 22 23 21 18
16 16 16 17 19 20 19 18 16 15 15 15 15 15 15 15 16 17 18 20 21 23 25 26 28 29 31 33 34 35 36 36 36 36 36 35 33 31 29 29 29 30 30 31 33 34 34 34 34 33 33 33 33 31 30 30 29 28 25 21 16 13 15 16 16 16 15 11 10 12 14 17 16 16 18 18 18 21 24 25 24 23 23 22 19
17 16 16 18 20 20 19 17 16 15 15 15 15 15 15 15 16 17 18 19 21 23 25 26 28 29 31 33 34 35 36 36 36 36 36 35 33 30 29 29 30 31 32 33 34 34 35 36 35 34 32 30 29 27 28 30 28 24 24 23 18 13 11 11 13 15 15 13 9 11 14 15 14 15 18 19 21 25 27 27 26 25 24 23 19
18 16 17 19 20 19 18 16 16 15 14 14 14 14 14 14 16 17 18 20 22 23 25 26 28 29 31 33 34 36 36 36 36 36 36 35 32 30 29 29 30 32 33 34 36 36 37 38 35 33 30 26 26 26 27 29 27 24 23 22 20 16 10 7 9 13 14 13 9 10 14 15 13 15 17 17 20 27 28 27 27 26 24 22 18
Wind_Direction
325 325 329 331 330 331 337 341 345 346 348 346 341 339 338 334 329 330 330 331 334 334 335 333 330 326 322 318 315 311 305 298 292 287 284 282 278 275 271 269 267 265 265 264 265 264 263 264 265 265 265 266 265 264 263 265 266 268 270 269 270 272 274 275 275 276 275 274 273 271 265 259 254 251 246 240 239 241 244 248 251 254 259 264 269
322 326 327 326 327 329 340 341 337 342 350 347 340 338 338 336 332 332 335 337 337 336 334 331 329 326 323 320 316 310 304 297 291 285 281 278 275 272 269 267 265 264 264 264 265 266 266 265 267 267 266 267 265 264 264 266 268 270 272 272 272 273 274 276 278 279 278 275 272 269 263 257 251 248 244 241 240 242 246 249 253 257 261 266 270
318 326 326 325 327 326 340 345 335 337 348 347 342 339 339 338 336 337 338 338 336 334 330 327 325 323 320 317 312 306 301 295 290 287 282 279 275 272 270 268 266 265 265 264 264 266 267 267 269 270 269 268 268 267 266 267 269 271 273 274 275 275 277 278 278 279 278 277 274 269 263 258 253 248 243 241 241 243 246 248 252 258 262 267 271
310 326 332 329 334 338 343 347 340 339 342 344 343 338 338 340 342 342 338 338 335 330 325 323 322 319 317 312 309 303 299 295 292 292 287 283 280 277 275 272 271 270 268 267 268 269 270 270 271 272 272 271 271 270 268 268 269 271 273 274 275 276 277 278 278 277 277 278 276 270 264 258 253 249 244 240 241 242 245 249 254 260 265 269 272
323 332 337 336 340 347 344 345 343 343 345 345 344 339 343 346 347 347 339 338 332 327 326 324 323 320 317 313 309 303 298 293 290 289 286 283 282 282 280 278 276 273 271 272 272 272 272 272 271 272 273 273 273 273 273 273 273 273 273 273 273 274 274 275 275 275 276 277 275 271 265 258 251 247 245 242 243 245 247 250 256 262 268 270 271
329 334 335 339 343 344 344 342 340 346 350 348 345 342 349 349 345 346 339 335 331 330 330 329 328 325 321 317 312 307 301 294 289 287 286 286 283 283 283 282 279 275 274 274 274 275 275 274 273 272 274 275 276 276 276 276 276 275 274 274 274 273 272 272 272 272 273 273 272 269 265 260 254 248 245 243 244 249 252 253 256 260 264 269 271
331 335 334 335 342 342 345 342 338 343 349 348 346 345 348 345 341 340 338 334 333 334 334 333 332 330 327 323 319 314 308 302 299 294 291 291 288 286 285 283 281 280 278 276 276 277 278 276 275 275 274 274 274 275 276 277 277 276 274 275 275 275 274 273 272 271 270 270 269 267 265 262 257 251 246 245 247 252 255 256 258 259 261 265 269
346 340 336 335 342 346 350 347 341 339 342 346 344 343 344 341 338 336 333 332 333 334 335 334 333 332 330 328 325 322 317 313 311 304 298 296 294 293 290 286 285 284 281 280 280 279 279 278 276 275 274 273 272 273 275 276 277 276 275 275 277 277 276 274 272 270 270 271 270 268 266 262 257 253 248 245 248 254 257 257 258 259 260 263 267
352 345 343 344 349 352 354 350 344 341 342 342 340 339 339 337 335 332 330 330 332 333 332 332 330 329 329 329 328 327 325 322 320 311 308 306 303 301 298 295 292 289 286 284 283 282 281 280 280 279 278 276 274 274 275 275 275 275 274 274 275 275 273 272 271 270 271 273 273 269 265 262 256 252 249 245 243 249 254 258 259 259 262 267 270
356 351 353 353 354 355 355 351 348 346 346 343 340 338 337 336 335 333 331 330 331 332 332 331 329 326 326 328 329 329 329 330 330 321 317 315 311 309 303 298 294 291 290 289 287 285 283 283 283 283 282 280 279 279 277 275 274 273 273 273 272 271 270 270 271 272 273 274 272 267 262 259 256 252 251 248 244 245 251 258 260 262 265 269 272
360 358 360 359 357 357 357 356 354 353 353 350 345 339 339 340 340 337 334 332 332 335 337 336 332 330 328 326 329 327 326 329 332 330 324 323 320 316 309 302 295 290 289 290 289 286 285 285 285 285 285 285 284 282 278 275 273 273 273 273 273 272 271 272 272 273 273 274 272 266 262 258 254 253 253 252 251 251 254 258 260 264 266 269 272
2 3 4 1 359 1 4 5 4 3 2 358 353 348 349 353 353 350 346 343 340 342 342 340 338 337 335 329 327 323 318 317 323 325 323 323 321 317 312 305 299 294 289 288 287 286 285 285 285 285 286 286 285 281 277 274 273 273 274 273 272 272 272 273 274 277 278 277 276 270 263 259 254 253 255 255 256 258 259 258 258 262 265 265 269
7 8 8 7 5 8 11 12 9 7 6 4 2 360 3 9 10 10 7 2 356 354 349 345 343 338 333 328 324 318 310 307 313 316 316 315 314 312 308 304 300 296 291 288 286 286 286 285 284 284 285 285 284 281 278 276 275 274 274 273 272 271 271 271 273 276 277 277 275 271 265 262 259 255 256 258 259 260 259 258 258 261 264 264 268
17 15 15 15 14 16 16 12 10 11 14 14 13 12 15 20 20 21 20 17 11 6 357 350 346 335 328 323 317 313 311 310 312 312 312 310 308 307 303 300 297 293 289 287 287 287 287 287 288 289 288 288 286 283 281 279 278 277 275 274 272 270 268 267 268 270 272 273 272 270 267 263 261 257 256 259 261 262 261 261 260 261 264 267 269
24 24 24 24 23 23 20 18 20 24 27 25 24 23 23 23 22 21 21 18 14 5 353 347 344 338 334 329 319 314 315 314 312 310 310 307 303 301 299 297 294 292 290 288 289 288 288 288 289 290 290 289 286 284 282 281 280 278 277 276 274 272 269 268 268 270 272 272 272 271 269 265 261 257 255 257 260 262 262 263 263 262 264 266 267
32 33 31 30 28 30 32 35 40 39 36 32 32 31 28 22 16 12 8 8 5 353 340 337 340 341 341 339 331 320 313 309 307 305 304 304 302 297 293 292 291 291 292 292 292 291 290 290 289 289 287 285 283 282 281 281 280 277 276 274 273 272 271 271 271 272 272 270 270 270 269 267 263 260 258 257 257 259 260 262 263 262 264 267 267
42 43 39 38 40 46 51 55 54 46 38 33 32 29 23 15 5 0 359 358 354 347 341 338 339 337 335 340 340 330 318 312 311 307 304 304 305 302 296 293 292 293 293 294 293 292 291 290 289 287 284 282 280 278 279 280 278 276 274 273 273 272 272 273 273 272 270 269 268 268 268 267 266 264 262 261 261 261 262 263 266 267 265 266 267
52 53 54 58 61 64 64 61 53 41 33 28 25 20 15 12 8 5 4 1 358 357 355 352 349 340 334 337 338 335 330 326 321 315 310 308 309 307 303 299 297 296 296 296 296 296 295 293 291 288 286 284 281 279 279 280 278 276 274 274 271 269 271 275 276 275 271 269 267 266 266 266 266 266 266 266 265 265 265 264 266 268 266 265 266
66 69 73 75 73 71 64 52 40 31 27 23 22 19 16 15 14 12 9 8 6 6 6 6 3 354 348 343 338 337 336 331 325 319 317 315 313 309 307 304 301 300 299 299 299 299 298 297 295 292 290 287 285 283 282 280 278 277 276 275 271 269 272 273 273 274 273 270 266 264 263 264 264 266 267 268 268 267 266 264 264 265 267 266 264
81 82 81 77 70 61 50 41 36 32 28 25 23 20 17 14 12 11 10 10 9 10 11 10 6 1 357 353 348 345 342 337 332 328 326 324 320 315 311 307 305 302 301 301 301 301 301 300 299 297 294 291 288 287 285 283 281 280 278 277 276 279 279 273 271 272 272 269 264 261 260 261 262 263 266 268 268 268 266 267 269 268 266 262 257
83 79 71 63 56 49 45 42 40 36 31 26 24 19 14 10 7 5 5 7 7 9 10 6 2 358 356 354 353 350 346 342 338 334 332 329 325 320 315 311 308 305 304 303 303 303 302 301 300 299 297 294 291 288 286 285 285 284 283 281 282 286 284 279 277 275 272 269 265 261 259 260 262 263 265 266 267 267 266 267 268 267 264 260 256
73 64 57 52 48 47 46 46 43 36 29 24 19 15 9 3 0 357 357 358 358 2 360 354 350 348 347 348 347 346 344 341 337 335 332 329 326 322 318 314 311 309 307 307 306 305 303 302 302 301 300 298 295 291 287 284 284 284 284 283 284 285 284 282 281 278 275 272 269 266 262 262 262 264 265 267 266 265 266 264 262 262 260 260 259
64 55 50 46 46 45 44 43 39 31 23 17 11 5 359 354 353 350 351 350 349 352 349 344 341 339 338 337 336 337 335 333 331 330 328 326 324 322 320 318 315 311 309 307 306 304 303 303 303 304 303 302 301 298 294 289 284 281 280 280 281 282 282 281 280 279 277 274 272 270 266 264 264 265 266 266 265 268 271 264 259 260 257 255 257
58 51 49 47 45 40 37 35 31 25 16 9 4 358 353 351 351 348 347 344 341 342 341 338 336 334 331 328 326 326 326 326 325 324 323 322 320 319 317 316 314 312 310 308 306 304 303 302 303 303 303 303 302 301 300 296 290 284 280 278 277 277 278 278 278 277 277 276 274 272 270 268 267 266 264 264 267 277 279 263 258 260 255 252 254
58 55 52 48 42 33 28 24 20 17 8 1 356 350 347 348 349 346 344 340 336 334 333 331 329 328 326 322 320 320 321 322 322 321 318 317 316 315 314 313 311 309 307 306 305 304 303 302 302 302 302 302 301 300 300 298 294 290 286 282 278 276 275 274 274 274 275 275 275 273 271 270 269 265 262 265 273 280 273 259 259 262 257 254 253
63 59 52 43 35 26 19 14 10 7 360 355 350 344 341 342 343 341 340 338 335 332 329 328 325 325 324 322 319 318 320 320 319 317 315 313 312 312 311 311 309 308 306 304 302 301 300 300 300 300 300 299 298 298 298 297 295 293 291 287 283 279 275 273 272 272 273 274 274 273 271 270 268 265 263 268 274 273 267 257 250 250 252 253 252
63 53 43 35 29 21 12 7 4 360 354 350 346 342 339 338 339 338 336 334 333 331 328 327 326 326 326 324 321 319 318 317 317 316 315 313 310 309 308 307 307 306 305 303 301 299 297 295 295 296 297 297 295 295 294 294 292 291 290 288 285 281 278 276 273 272 272 272 273 273 272 270 269 267 266 267 271 273 267 257 249 243 239 245 249
55 44 35 28 22 12 4 1 358 354 348 345 342 340 337 335 335 334 332 331 331 330 329 328 329 329 328 326 323 320 318 317 316 314 312 310 308 307 305 304 303 303 302 301 299 297 295 293 291 291 291 292 292 291 291 290 290 289 288 286 285 283 281 279 277 274 271 270 271 272 271 271 272 271 268 267 269 273 266 255 254 251 242 241 242
46 36 29 20 12 3 360 358 353 348 344 341 338 336 334 332 332 332 332 332 332 332 331 330 329 328 326 324 322 319 318 316 315 313 311 309 308 306 305 304 303 302 300 298 297 295 293 291 289 288 286 286 287 287 286 285 285 286 286 284 282 282 281 280 278 276 272 269 268 269 269 270 273 272 269 267 265 267 267 258 252 251 252 251 243
35 27 21 11 4 359 356 353 346 342 340 337 334 332 333 334 336 335 334 334 333 332 331 329 327 326 325 323 322 320 318 317 316 314 313 312 310 309 308 307 306 305 303 300 298 296 294 292 289 287 284 282 282 282 283 282 281 281 282 283 281 279 278 277 277 276 274 270 266 266 268 269 269 270 270 267 263 262 264 261 253 246 251 256 251
23 18 10 2 358 354 351 346 339 337 337 337 335 335 336 338 338 337 335 333 332 330 329 328 327 326 325 324 323 321 320 319 318 317 317 316 316 316 315 314 312 309 306 304 301 299 297 295 293 290 287 284 280 279 279 278 278 277 277 278 279 277 274 273 273 274 274 271 266 264 266 268 267 266 267 267 263 260 262 265 263 258 258 256 252
15 8 1 356 353 350 348 346 343 342 341 342 340 338 337 337 337 336 334 332 330 329 328 327 326 326 326 325 324 322 321 320 320 322 323 325 325 325 323 320 317 314 311 309 307 305 302 299 297 294 292 289 285 282 279 277 276 275 273 273 274 274 272 269 269 270 270 269 266 264 265 267 266 262 262 263 262 259 259 264 264 263 265 259 250
6 1 357 354 353 352 351 351 351 347 344 343 341 339 337 336 336 334 332 330 329 328 327 325 325 325 326 327 327 326 325 325 326 327 329 330 330 328 326 324 322 319 317 314 312 310 307 304 300 297 294 291 289 286 283 280 277 275 272 270 269 270 270 268 266 266 267 267 265 263 263 264 266 264 259 257 259 260 256 256 258 259 262 256 244
2 360 357 354 355 356 354 352 349 345 343 341 340 339 337 336 335 333 331 329 328 326 325 326 327 328 329 330 332 333 333 334 334 334 334 333 332 331 330 328 326 323 319 317 314 311 308 306 303 300 296 293 290 288 285 282 279 275 272 269 267 266 266 267 265 264 264 264 263 262 261 262 264 264 259 255 254 256 255 255 258 261 261 251 241
3 2 360 357 357 354 351 348 345 343 341 338 338 338 337 336 334 332 330 328 326 326 328 332 335 335 337 338 340 340 340 340 340 339 338 336 334 333 331 328 325 321 318 314 311 308 305 304 303 301 298 296 293 290 288 285 281 277 273 268 265 264 263 262 262 262 261 260 261 261 259 260 260 258 255 254 253 252 253 255 256 259 256 241 233
8 4 1 356 353 350 347 344 342 340 338 337 339 339 337 335 333 330 329 329 329 332 336 342 344 344 346 347 346 345 344 343 342 340 339 337 335 332 329 325 322 318 314 310 307 304 302 302 303 303 302 300 299 297 294 291 288 284 279 273 267 262 260 259 258 258 259 258 258 258 258 257 257 257 255 254 254 250 248 249 249 252 250 238 228
5 359 355 352 349 346 343 341 339 339 338 338 339 338 336 333 332 332 332 334 338 344 349 351 350 349 350 350 349 348 346 344 343 342 340 338 334 331 328 324 321 317 313 309 307 307 306 305 306 306 306 305 304 303 301 299 296 291 287 282 275 267 260 257 256 255 255 256 257 256 256 255 256 258 257 255 250 244 245 245 241 243 243 238 232
359 354 351 348 345 341 340 340 340 340 339 338 338 337 335 334 336 339 341 345 351 355 356 355 353 353 354 353 352 350 348 346 345 343 341 338 334 331 328 324 320 316 314 312 311 310 309 308 308 307 307 308 307 305 303 301 300 298 295 289 283 277 267 259 256 254 252 253 255 254 254 253 254 256 254 252 246 237 243 246 240 236 233 234 230
354 351 348 345 342 340 343 345 342 340 339 339 337 336 336 338 342 345 348 354 358 359 358 357 356 357 356 354 353 352 350 349 347 344 341 337 334 330 326 323 321 318 317 316 314 312 311 310 309 308 307 307 308 307 306 304 302 301 300 297 290 283 276 266 258 254 251 250 252 252 252 251 252 255 253 252 247 236 238 246 243 237 236 240 237
352 350 348 345 344 346 347 346 342 339 339 338 336 335 335 337 343 347 352 358 1 1 0 360 359 357 355 355 355 354 353 351 347 343 340 336 332 329 327 325 324 322 321 320 318 317 317 316 315 313 312 310 308 307 306 304 303 302 300 300 297 289 282 274 263 256 251 247 248 250 251 250 250 254 255 255 255 243 239 242 239 238 241 243 243
354 352 350 348 348 348 347 346 344 343 341 337 336 338 340 343 348 353 359 4 5 4 2 360 359 357 357 358 357 356 353 349 345 342 338 335 332 330 329 329 328 327 327 326 326 325 323 323 322 322 321 320 317 312 308 306 304 302 298 295 295 293 285 278 269 258 252 247 243 246 250 250 250 254 255 255 253 245 239 239 236 235 236 237 241
355 352 351 351 350 350 351 349 346 345 343 341 342 349 355 359 2 4 6 7 7 6 3 1 360 359 359 359 357 354 351 347 344 341 338 337 335 335 335 335 334 334 335 334 333 332 331 330 330 329 329 328 327 324 318 312 309 306 302 296 294 293 284 276 272 262 254 248 242 242 247 250 250 252 254 253 247 241 236 235 232 226 224 231 237
353 353 353 352 353 352 351 348 346 346 347 349 352 359 7 9 10 11 10 8 7 6 4 3 1 359 358 357 355 352 349 347 346 344 342 341 340 340 340 340 340 341 342 342 342 340 337 335 334 333 333 333 334 334 327 319 314 311 308 304 300 297 288 271 264 260 254 249 244 241 242 247 250 250 252 252 242 235 232 228 223 216 218 228 233
353 353 352 352 352 351 349 348 348 351 354 359 2 6 10 11 12 13 12 9 8 6 5 2 358 356 356 355 353 352 351 350 348 346 345 344 344 344 344 345 346 347 348 348 347 344 341 339 339 339 338 338 338 338 333 325 317 313 310 309 306 301 296 282 261 251 250 247 243 241 241 243 247 248 250 251 240 225 225 228 225 217 217 226 229
353 350 350 352 352 351 350 351 352 356 1 6 8 9 10 11 12 12 10 8 7 5 2 357 355 356 357 356 355 354 354 351 349 347 346 346 346 347 348 350 351 351 351 350 348 347 345 344 344 343 342 340 339 338 336 330 322 315 310 309 308 303 300 295 276 250 242 242 238 238 241 242 243 246 250 251 243 225 221 229 232 228 223 224 227
353 350 352 355 354 353 353 354 357 1 5 7 8 10 13 14 13 11 8 6 5 3 0 359 359 360 359 357 356 356 354 351 349 348 348 349 349 350 352 354 355 354 353 352 351 349 348 347 345 345 344 342 340 339 339 336 330 320 309 305 304 302 300 297 292 267 237 233 232 231 235 240 241 244 249 251 249 235 222 225 230 229 228 225 227
355 354 357 357 355 354 356 358 1 3 5 8 9 11 14 14 12 10 8 8 6 4 3 2 2 2 0 358 357 356 354 352 351 350 351 351 352 354 356 357 357 356 354 352 352 351 350 348 347 346 345 344 342 343 343 341 339 333 319 306 298 295 293 291 293 287 251 225 222 222 226 234 239 241 244 246 246 237 224 225 228 226 224 223 225
357 357 357 356 354 356 359 2 4 4 6 11 12 12 12 11 10 10 9 7 6 5 4 3 3 3 1 359 358 356 354 353 352 353 353 354 355 356 357 358 358 356 353 351 351 350 349 348 347 347 346 346 345 345 346 342 340 342 337 323 304 289 282 283 284 285 274 235 212 212 217 223 228 236 241 238 233 229 225 226 225 221 220 220 222
358 357 354 353 356 358 1 3 5 6 9 13 13 11 10 9 10 10 9 7 6 5 5 4 4 3 1 359 358 356 355 354 354 355 356 357 357 357 357 357 356 354 351 350 350 348 347 346 346 346 346 347 348 347 348 346 340 340 342 337 323 299 281 277 275 273 274 260 218 200 209 214 214 228 238 236 227 222 222 223 220 217 217 217 218
358 355 353 355 357 357 359 3 6 8 11 13 13 10 8 9 11 10 8 7 7 6 5 4 4 2 1 360 358 358 357 356 357 358 359 358 357 356 356 355 354 352 350 348 349 348 347 346 345 345 345 347 350 350 352 352 346 341 341 341 336 322 295 277 270 263 258 258 233 193 196 203 208 222 228 234 233 221 215 216 216 216 214 212 212
357 355 355 356 356 356 360 3 7 9 10 12 13 9 7 9 11 9 7 8 7 6 5 4 3 2 1 1 0 360 359 359 360 0 360 359 358 357 355 354 353 351 350 350 350 349 349 348 347 345 344 346 352 353 353 355 351 345 342 341 341 334 317 290 265 253 247 247 229 196 194 197 211 225 224 230 225 208 202 205 210 215 212 205 204
Height
3145 3145 3144 3144 3144 3143 3142 3142 3142 3142 3141 3141 3140 3140 3139 3139 3138 3137 3137 3137 3136 3136 3135 3134 3134 3133 3133 3132 3132 3131 3131 3130 3130 3129 3129 3128 3128 3128 3127 3127 3127 3127 3127 3126 3126 3126 3125 3125 3125 3125 3125 3124 3124 3123 3122 3122 3122 3121 3121 3121 3121 3121 3120 3120 3120 3120 3120 3120 3119 3119 3119 3119 3118 3118 3118 3119 3119 3119 3119 3119 3119 3119 3119 3119 3119
3145 3144 3144 3144 3144 3143 3143 3142 3142 3141 3141 3140 3140 3140 3139 3138 3138 3137 3137 3136 3136 3135 3134 3133 3133 3132 3132 3131 3131 3130 3130 3130 3129 3129 3128 3128 3127 3127 3126 3126 3126 3125 3125 3125 3125 3124 3124 3124 3124 3124 3123 3123 3122 3122 3121 3121 3121 3120 3120 3120 3120 3120 3119 3119 3119 3118 3118 3118 3118 3118 3118 3117 3117 3117 3117 3117 3117 3117 3118 3118 3118 3118 3118 3118 3118
3145 3145 3145 3144 3144 3143 3143 3143 3142 3141 3141 3140 3140 3140 3139 3138 3138 3137 3136 3136 3135 3135 3134 3133 3132 3132 3131 3130 3130 3130 3129 3129 3128 3128 3127 3127 3126 3126 3126 3125 3125 3125 3124 3124 3123 3123 3123 3123 3123 3122 3122 3121 3121 3121 3120 3120 3120 3120 3120 3119 3119 3118 3118 3118 3117 3117 3117 3116 3116 3116 3116 3116 3116 3116 3116 3116 3116 3116 3116 3116 3117 3117 3117 3117 3117
3146 3145 3145 3144 3144 3143 3143 3142 3142 3141 3141 3141 3140 3139 3139 3138 3137 3136 3136 3135 3135 3134 3133 3132 3132 3131 3131 3130 3129 3129 3128 3128 3127 3127 3126 3126 3125 3125 3125 3124 3124 3124 3123 3123 3122 3122 3122 3122 3121 3121 3121 3120 3120 3120 3119 3119 3119 3119 3119 3119 3118 3118 3117 3117 3116 3115 3115 3115 3115 3115 3115 3115 3115 3115 3115 3115 3115 3115 3115 3115 3115 3115 3115 3115 3115
3146 3146 3145 3144 3144 3144 3143 3142 3142 3141 3141 3141 3140 3139 3139 3138 3137 3136 3136 3135 3134 3134 3133 3132 3131 3131 3130 3129 3129 3128 3128 3127 3127 3126 3125 3125 3124 3124 3124 3123 3123 3123 3122 3122 3121 3121 3120 3120 3120 3120 3119 3119 3119 3119 3118 3118 3118 3118 3118 3118 3117 3117 3116 3116 3115 3114 3114 3114 3113 3113 3113 3113 3114 3113 3113 3113 3113 3114 3114 3114 3114 3114 3114 3114 3114
3146 3145 3145 3144 3144 3143 3143 3142 3142 3141 3141 3140 3140 3139 3138 3137 3137 3136 3135 3135 3134 3134 3133 3132 3131 3130 3130 3129 3128 3128 3127 3126 3126 3125 3124 3124 3124 3123 3123 3122 3122 3122 3121 3121 3121 3120 3119 3119 3119 3118 3118 3118 3118 3117 3117 3117 3117 3117 3117 3117 3116 3116 3116 3115 3114 3113 3113 3112 3112 3111 3111 3112 3112 3112 3112 3112 3112 3112 3113 3113 3113 3113 3113 3113 3113
3145 3145 3145 3144 3144 3143 3143 3142 3142 3141 3141 3140 3140 3139 3138 3137 3136 3136 3135 3135 3134 3133 3133 3132 3131 3130 3130 3129 3128 3127 3126 3126 3126 3125 3124 3123 3123 3123 3122 3122 3121 3121 3121 3120 3120 3119 3118 3118 3117 3117 3117 3117 3116 3116 3116 3116 3116 3116 3116 3115 3115 3115 3114 3113 3113 3112 3111 3111 3111 3110 3110 3110 3110 3110 3111 3111 3111 3111 3111 3112 3111 3111 3111 3111 3111
3145 3145 3144 3144 3144 3143 3143 3142 3142 3141 3141 3140 3139 3139 3138 3137 3136 3135 3135 3134 3134 3133 3132 3132 3131 3130 3129 3129 3128 3127 3126 3126 3126 3124 3123 3123 3123 3122 3122 3121 3121 3120 3120 3119 3118 3118 3117 3117 3116 3116 3116 3115 3115 3115 3115 3114 3114 3114 3114 3113 3113 3113 3112 3112 3111 3111 3110 3110 3110 3110 3109 3109 3109 3109 3109 3110 3110 3110 3110 3110 3110 3110 3110 3110 3110
3145 3145 3144 3144 3143 3143 3143 3142 3142 3141 3141 3140 3139 3138 3137 3137 3136 3135 3135 3134 3134 3133 3132 3131 3131 3130 3129 3128 3128 3127 3126 3125 3125 3124 3123 3123 3122 3122 3122 3121 3121 3120 3119 3119 3118 3117 3116 3116 3115 3115 3115 3115 3114 3114 3114 3113 3112 3112 3112 3111 3111 3111 3110 3110 3109 3109 3109 3108 3108 3109 3108 3108 3107 3107 3108 3108 3109 3109 3108 3109 3109 3109 3109 3109 3109
3145 3144 3144 3144 3144 3143 3143 3143 3142 3141 3141 3140 3139 3138 3137 3137 3136 3135 3134 3134 3133 3133 3132 3131 3130 3130 3129 3128 3128 3127 3126 3125 3125 3124 3123 3123 3122 3122 3121 3121 3120 3120 3119 3118 3117 3116 3116 3115 3115 3114 3114 3114 3114 3113 3113 3112 3111 3110 3110 3110 3110 3109 3109 3108 3108 3108 3107 3107 3107 3107 3106 3106 3106 3106 3106 3107 3108 3107 3107 3107 3107 3107 3107 3107 3107
3145 3145 3144 3144 3144 3143 3143 3142 3142 3141 3141 3140 3139 3138 3137 3137 3136 3135 3134 3133 3133 3132 3132 3131 3130 3129 3129 3128 3127 3127 3126 3125 3124 3124 3123 3122 3122 3121 3121 3120 3120 3119 3118 3118 3117 3116 3115 3115 3114 3114 3114 3113 3113 3112 3111 3110 3110 3109 3109 3109 3109 3108 3107 3107 3106 3106 3106 3105 3105 3105 3105 3105 3105 3105 3105 3105 3105 3105 3105 3105 3105 3105 3105 3105 3105
3145 3145 3145 3144 3144 3143 3143 3142 3142 3141 3141 3140 3139 3138 3137 3137 3136 3135 3134 3133 3132 3132 3131 3130 3130 3129 3128 3128 3127 3126 3125 3124 3124 3123 3122 3122 3121 3121 3120 3120 3119 3118 3118 3117 3116 3115 3115 3114 3113 3113 3113 3113 3112 3111 3110 3109 3108 3108 3108 3108 3107 3107 3106 3105 3105 3104 3104 3104 3104 3104 3104 3104 3104 3104 3104 3104 3103 3104 3104 3103 3103 3103 3104 3104 3104
3146 3145 3145 3144 3144 3143 3143 3142 3142 3141 3141 3140 3139 3138 3137 3136 3136 3135 3134 3133 3132 3131 3131 3130 3129 3129 3128 3127 3126 3125 3125 3124 3123 3122 3122 3121 3120 3120 3119 3119 3118 3117 3117 3116 3115 3114 3114 3113 3113 3112 3112 3111 3111 3110 3108 3108 3107 3107 3107 3106 3106 3105 3105 3104 3103 3103 3102 3102 3102 3102 3102 3103 3103 3103 3102 3102 3102 3103 3102 3101 3100 3101 3102 3102 3102
3146 3145 3145 3145 3144 3144 3143 3143 3142 3142 3141 3140 3139 3138 3137 3136 3135 3135 3134 3133 3132 3131 3131 3130 3129 3128 3127 3126 3126 3125 3124 3123 3122 3122 3121 3120 3120 3119 3118 3118 3117 3116 3116 3115 3114 3113 3113 3112 3112 3111 3111 3110 3109 3108 3107 3106 3106 3106 3105 3104 3104 3103 3103 3102 3101 3101 3100 3100 3100 3100 3101 3101 3102 3101 3101 3101 3101 3101 3100 3099 3099 3099 3099 3100 3101
3146 3146 3145 3145 3144 3144 3144 3143 3142 3142 3141 3140 3139 3138 3137 3136 3135 3134 3134 3133 3132 3132 3131 3130 3129 3128 3127 3126 3125 3124 3123 3123 3122 3121 3121 3120 3119 3118 3117 3117 3116 3115 3115 3114 3113 3112 3112 3111 3111 3110 3110 3109 3107 3106 3105 3105 3105 3104 3103 3103 3102 3102 3101 3100 3100 3099 3099 3099 3098 3098 3099 3099 3099 3099 3099 3099 3099 3099 3098 3098 3098 3097 3097 3098 3098
3147 3146 3145 3145 3144 3144 3144 3143 3142 3142 3141 3140 3139 3138 3137 3136 3136 3135 3134 3133 3133 3132 3130 3130 3129 3128 3127 3126 3125 3124 3123 3122 3121 3121 3120 3119 3118 3117 3116 3116 3115 3114 3113 3113 3112 3111 3110 3110 3110 3109 3108 3107 3106 3104 3103 3103 3103 3102 3102 3101 3100 3100 3099 3099 3098 3098 3097 3097 3097 3097 3097 3097 3097 3096 3097 3097 3097 3097 3096 3096 3096 3095 3095 3096 3096
3147 3146 3146 3145 3145 3144 3144 3143 3143 3142 3141 3140 3139 3139 3138 3137 3136 3135 3134 3133 3133 3132 3131 3130 3129 3128 3127 3126 3125 3124 3123 3122 3121 3121 3120 3119 3118 3117 3116 3115 3114 3113 3112 3112 3111 3110 3109 3108 3108 3107 3107 3106 3104 3103 3102 3102 3101 3100 3099 3099 3098 3098 3097 3097 3097 3096 3096 3095 3095 3095 3094 3094 3094 3094 3094 3095 3094 3094 3094 3094 3093 3093 3093 3093 3094
3147 3146 3146 3145 3145 3145 3144 3144 3143 3142 3142 3141 3140 3139 3139 3138 3137 3136 3135 3134 3133 3132 3131 3130 3129 3128 3127 3126 3125 3124 3123 3122 3121 3120 3119 3118 3117 3116 3115 3114 3113 3113 3112 3111 3110 3109 3108 3107 3106 3106 3105 3104 3103 3101 3101 3100 3099 3098 3097 3097 3095 3095 3095 3095 3094 3094 3093 3093 3093 3093 3092 3092 3091 3091 3092 3092 3092 3092 3092 3091 3091 3091 3091 3091 3092
3147 3147 3146 3146 3146 3145 3145 3144 3144 3144 3143 3142 3141 3140 3140 3139 3138 3137 3136 3135 3133 3132 3131 3130 3129 3129 3127 3126 3125 3124 3123 3122 3121 3120 3119 3118 3117 3116 3115 3114 3113 3112 3111 3110 3109 3108 3107 3106 3105 3104 3103 3103 3101 3100 3099 3098 3097 3096 3096 3094 3092 3092 3094 3093 3091 3091 3091 3091 3091 3091 3090 3089 3089 3089 3089 3090 3090 3089 3089 3089 3089 3089 3089 3089 3090
3148 3147 3147 3147 3147 3146 3146 3146 3145 3144 3144 3143 3142 3141 3140 3139 3138 3137 3136 3135 3134 3133 3132 3131 3130 3129 3128 3126 3125 3124 3123 3122 3121 3119 3118 3117 3116 3115 3114 3113 3112 3111 3110 3109 3107 3106 3105 3104 3103 3102 3102 3101 3100 3099 3098 3097 3096 3095 3094 3092 3090 3092 3094 3091 3089 3089 3089 3089 3088 3088 3087 3087 3087 3087 3087 3087 3087 3086 3086 3087 3087 3088 3087 3087 3087
3148 3148 3148 3148 3148 3147 3147 3146 3146 3145 3144 3144 3143 3142 3141 3140 3139 3138 3137 3136 3134 3133 3132 3131 3130 3129 3127 3126 3125 3124 3123 3121 3120 3119 3118 3117 3116 3114 3113 3112 3111 3110 3109 3107 3106 3105 3104 3102 3101 3101 3100 3099 3098 3097 3096 3096 3095 3094 3092 3091 3089 3090 3091 3089 3088 3087 3087 3086 3086 3086 3085 3084 3084 3084 3084 3084 3084 3084 3083 3084 3085 3085 3084 3085 3085
3149 3149 3149 3149 3148 3148 3147 3147 3146 3145 3145 3144 3143 3143 3142 3141 3140 3138 3137 3136 3135 3134 3132 3131 3130 3129 3128 3127 3125 3124 3123 3121 3120 3119 3118 3117 3115 3114 3113 3112 3110 3109 3108 3106 3105 3104 3102 3101 3100 3099 3098 3097 3096 3095 3094 3094 3093 3092 3091 3090 3089 3088 3088 3087 3087 3086 3085 3085 3084 3083 3082 3082 3082 3082 3081 3081 3081 3081 3081 3082 3082 3080 3082 3083 3082
3150 3150 3150 3150 3149 3149 3148 3148 3147 3146 3145 3145 3144 3143 3142 3141 3140 3139 3138 3136 3135 3134 3133 3132 3131 3130 3128 3127 3126 3124 3123 3122 3120 3119 3118 3116 3115 3114 3113 3111 3110 3108 3107 3106 3104 3103 3101 3100 3099 3097 3096 3095 3093 3092 3092 3092 3091 3090 3089 3088 3087 3086 3085 3085 3085 3084 3084 3083 3082 3081 3080 3080 3079 3079 3078 3077 3077 3078 3079 3079 3077 3076 3079 3080 3079
3151 3151 3151 3150 3150 3149 3149 3148 3147 3147 3146 3145 3144 3143 3142 3141 3140 3139 3138 3137 3135 3134 3133 3132 3131 3130 3129 3127 3126 3125 3123 3122 3120 3118 3117 3116 3114 3113 3112 3110 3109 3107 3106 3104 3103 3102 3100 3099 3097 3096 3094 3093 3092 3090 3090 3089 3088 3087 3086 3085 3084 3084 3083 3082 3082 3082 3081 3080 3080 3079 3078 3078 3077 3076 3074 3072 3074 3077 3077 3075 3074 3074 3076 3076 3076
3152 3152 3152 3151 3150 3150 3149 3149 3148 3147 3147 3146 3145 3144 3143 3141 3140 3139 3138 3137 3136 3135 3133 3132 3131 3130 3129 3127 3126 3124 3123 3121 3120 3118 3116 3115 3113 3112 3110 3109 3107 3106 3104 3103 3101 3100 3099 3097 3096 3095 3093 3091 3090 3088 3087 3087 3086 3085 3084 3083 3082 3081 3080 3080 3079 3079 3078 3078 3078 3077 3076 3076 3075 3074 3071 3070 3074 3075 3074 3073 3072 3071 3073 3073 3072
3153 3153 3152 3152 3151 3150 3150 3149 3149 3148 3147 3146 3145 3144 3143 3142 3140 3139 3138 3137 3136 3134 3133 3132 3131 3130 3128 3127 3125 3123 3122 3120 3119 3117 3115 3113 3112 3110 3109 3107 3106 3104 3103 3101 3100 3098 3097 3095 3094 3093 3091 3090 3088 3087 3085 3084 3083 3082 3082 3080 3079 3078 3077 3077 3076 3076 3076 3076 3075 3075 3074 3074 3073 3071 3068 3070 3072 3073 3072 3071 3071 3069 3070 3070 3069
3154 3153 3153 3152 3151 3151 3150 3150 3149 3148 3147 3145 3144 3143 3142 3141 3140 3139 3138 3137 3135 3134 3133 3131 3130 3129 3127 3126 3124 3122 3120 3119 3117 3116 3114 3112 3110 3109 3107 3106 3104 3102 3101 3099 3098 3096 3094 3093 3092 3090 3089 3087 3086 3084 3083 3082 3081 3080 3079 3078 3077 3076 3075 3074 3073 3073 3073 3073 3073 3072 3071 3071 3070 3068 3066 3068 3070 3070 3070 3070 3068 3068 3068 3067 3068
3154 3154 3153 3153 3152 3152 3151 3150 3149 3148 3147 3145 3144 3143 3142 3141 3140 3139 3137 3136 3135 3133 3132 3130 3129 3128 3126 3124 3122 3121 3119 3117 3116 3114 3112 3110 3109 3107 3105 3104 3102 3100 3099 3097 3095 3094 3092 3090 3089 3087 3086 3084 3083 3081 3080 3079 3078 3077 3077 3076 3075 3073 3072 3071 3071 3070 3070 3070 3070 3069 3068 3069 3069 3067 3065 3067 3069 3068 3068 3068 3067 3067 3066 3065 3066
3155 3154 3154 3153 3153 3152 3151 3150 3149 3148 3146 3145 3144 3143 3142 3141 3140 3139 3137 3136 3134 3133 3131 3130 3128 3127 3125 3123 3121 3119 3117 3115 3114 3112 3110 3108 3106 3105 3103 3101 3100 3098 3096 3094 3093 3091 3089 3088 3086 3084 3083 3081 3080 3078 3077 3076 3075 3074 3073 3073 3072 3071 3070 3069 3068 3067 3067 3067 3067 3066 3065 3067 3067 3065 3063 3065 3067 3066 3065 3065 3066 3065 3064 3063 3065
3155 3155 3154 3153 3153 3152 3151 3150 3149 3148 3147 3146 3145 3144 3142 3141 3140 3138 3137 3135 3134 3132 3130 3129 3127 3125 3124 3122 3119 3117 3115 3113 3112 3110 3108 3106 3104 3102 3101 3099 3097 3095 3094 3092 3090 3088 3086 3084 3082 3081 3079 3078 3076 3074 3073 3072 3071 3070 3069 3069 3068 3068 3067 3066 3065 3065 3064 3064 3064 3063 3063 3064 3065 3063 3061 3062 3064 3064 3062 3061 3062 3063 3064 3063 3064
3156 3155 3154 3154 3153 3152 3151 3150 3149 3148 3147 3146 3145 3143 3142 3141 3140 3138 3136 3134 3133 3131 3129 3127 3126 3124 3122 3120 3118 3116 3113 3111 3109 3108 3106 3104 3102 3101 3099 3097 3095 3093 3090 3088 3086 3084 3082 3080 3078 3077 3075 3074 3072 3071 3069 3068 3067 3067 3066 3065 3064 3064 3064 3063 3062 3062 3061 3061 3061 3061 3060 3061 3063 3062 3059 3059 3061 3062 3061 3059 3059 3061 3063 3064 3064
3156 3156 3155 3154 3153 3152 3151 3150 3149 3148 3147 3146 3144 3143 3142 3140 3139 3137 3135 3134 3132 3130 3128 3126 3124 3122 3121 3119 3117 3115 3112 3110 3108 3106 3104 3102 3101 3099 3097 3095 3093 3090 3088 3085 3083 3081 3079 3077 3075 3073 3070 3069 3067 3066 3065 3063 3063 3062 3062 3061 3060 3060 3060 3060 3059 3059 3058 3058 3058 3058 3058 3058 3059 3060 3058 3056 3057 3059 3060 3059 3058 3059 3061 3062 3063
3157 3156 3155 3154 3153 3152 3151 3150 3149 3148 3146 3145 3144 3142 3141 3139 3138 3136 3135 3133 3131 3129 3127 3126 3123 3121 3120 3118 3116 3114 3111 3109 3107 3105 3103 3102 3100 3097 3095 3093 3090 3088 3085 3083 3080 3078 3075 3073 3071 3069 3067 3064 3063 3061 3060 3059 3058 3057 3057 3057 3056 3056 3055 3056 3056 3056 3055 3055 3056 3056 3055 3055 3055 3056 3056 3055 3054 3055 3057 3058 3058 3059 3060 3060 3061
3157 3156 3155 3154 3153 3152 3151 3150 3149 3147 3146 3145 3143 3142 3140 3138 3137 3136 3134 3132 3131 3129 3127 3125 3123 3121 3119 3117 3115 3113 3111 3109 3107 3105 3103 3100 3098 3096 3093 3091 3088 3086 3083 3080 3077 3074 3072 3069 3066 3064 3062 3060 3058 3056 3055 3054 3053 3052 3052 3051 3051 3051 3051 3051 3052 3052 3052 3052 3052 3052 3053 3053 3053 3053 3053 3052 3052 3052 3054 3055 3056 3058 3059 3059 3058
3157 3156 3155 3155 3154 3152 3151 3150 3148 3147 3145 3144 3142 3141 3139 3138 3137 3135 3134 3132 3130 3128 3126 3124 3122 3120 3118 3116 3114 3112 3110 3108 3106 3104 3101 3099 3096 3094 3091 3089 3086 3083 3080 3077 3074 3071 3068 3065 3062 3059 3058 3055 3053 3052 3050 3049 3048 3047 3046 3046 3046 3046 3046 3046 3047 3048 3048 3049 3049 3049 3050 3050 3050 3049 3048 3049 3050 3051 3051 3052 3053 3055 3056 3057 3057
3157 3157 3156 3155 3154 3152 3151 3150 3148 3146 3145 3143 3142 3140 3139 3138 3136 3135 3133 3131 3129 3127 3125 3123 3121 3119 3117 3115 3113 3111 3109 3107 3105 3102 3100 3098 3095 3092 3089 3086 3083 3080 3077 3073 3070 3066 3064 3061 3059 3055 3053 3051 3049 3047 3046 3044 3043 3042 3041 3041 3041 3041 3041 3041 3042 3043 3044 3045 3046 3046 3046 3047 3047 3046 3047 3048 3048 3049 3049 3050 3051 3052 3053 3055 3055
3158 3157 3156 3155 3153 3152 3151 3149 3148 3146 3145 3143 3141 3140 3139 3137 3136 3134 3132 3130 3128 3126 3125 3122 3120 3118 3116 3114 3112 3110 3108 3106 3104 3101 3099 3096 3093 3090 3087 3083 3080 3077 3073 3069 3066 3063 3060 3058 3056 3053 3049 3046 3044 3042 3041 3040 3038 3037 3037 3036 3036 3036 3036 3037 3037 3038 3040 3041 3042 3043 3043 3044 3044 3044 3045 3046 3046 3046 3047 3048 3049 3050 3051 3053 3053
3158 3157 3156 3154 3153 3152 3151 3149 3147 3146 3145 3143 3141 3140 3138 3137 3135 3133 3131 3129 3127 3125 3124 3122 3120 3118 3116 3114 3112 3110 3108 3105 3103 3100 3097 3094 3090 3087 3084 3080 3077 3074 3070 3067 3063 3060 3057 3054 3052 3050 3047 3043 3040 3037 3035 3034 3033 3032 3032 3032 3031 3031 3031 3032 3032 3033 3035 3036 3038 3039 3039 3040 3041 3041 3042 3043 3043 3044 3045 3046 3047 3048 3049 3051 3052
3158 3157 3155 3154 3153 3152 3150 3149 3147 3146 3145 3143 3141 3139 3137 3136 3134 3132 3130 3128 3127 3125 3123 3121 3119 3117 3115 3114 3112 3110 3107 3104 3101 3098 3095 3092 3088 3085 3081 3078 3074 3071 3068 3064 3061 3057 3055 3052 3049 3047 3045 3042 3037 3033 3031 3029 3028 3027 3026 3026 3026 3025 3025 3027 3028 3029 3031 3032 3033 3034 3035 3036 3037 3037 3039 3040 3041 3043 3044 3044 3046 3046 3048 3049 3050
3158 3157 3155 3154 3153 3152 3150 3149 3148 3146 3145 3143 3141 3139 3137 3135 3134 3132 3130 3128 3127 3125 3123 3121 3119 3118 3116 3113 3111 3109 3106 3103 3100 3097 3093 3090 3086 3083 3079 3076 3072 3069 3065 3061 3057 3054 3050 3048 3045 3043 3041 3039 3036 3032 3028 3025 3024 3023 3022 3021 3021 3020 3020 3021 3022 3023 3025 3027 3029 3030 3031 3032 3033 3034 3036 3038 3041 3043 3042 3043 3044 3045 3046 3047 3048
3158 3157 3156 3154 3153 3152 3151 3149 3148 3146 3144 3143 3141 3139 3138 3136 3134 3132 3130 3129 3127 3125 3123 3121 3119 3117 3115 3113 3110 3107 3105 3102 3099 3096 3092 3089 3085 3081 3077 3073 3070 3066 3062 3058 3054 3051 3047 3044 3042 3040 3037 3035 3034 3030 3026 3022 3020 3018 3018 3018 3018 3018 3016 3015 3017 3018 3020 3022 3024 3026 3027 3028 3030 3031 3034 3036 3039 3039 3040 3040 3042 3043 3045 3045 3045
3158 3157 3156 3155 3153 3152 3151 3149 3147 3146 3144 3142 3140 3139 3137 3135 3134 3132 3130 3129 3127 3125 3123 3121 3119 3116 3114 3112 3110 3107 3104 3101 3098 3095 3091 3087 3083 3078 3074 3070 3066 3063 3059 3056 3052 3049 3045 3042 3039 3037 3035 3033 3030 3028 3024 3020 3016 3014 3012 3011 3012 3013 3014 3012 3012 3014 3015 3016 3019 3022 3023 3024 3026 3028 3031 3034 3035 3035 3037 3038 3040 3040 3041 3042 3044
3159 3157 3156 3155 3154 3152 3151 3149 3147 3145 3144 3142 3140 3138 3136 3135 3134 3132 3130 3128 3127 3125 3123 3120 3118 3116 3114 3112 3109 3107 3104 3100 3096 3092 3088 3083 3079 3075 3071 3067 3063 3060 3057 3054 3051 3047 3044 3041 3037 3034 3031 3030 3028 3026 3022 3018 3014 3011 3009 3007 3006 3007 3009 3009 3009 3010 3010 3012 3015 3017 3019 3021 3023 3026 3028 3031 3032 3032 3034 3035 3037 3038 3038 3040 3042
3159 3158 3156 3155 3154 3152 3151 3149 3147 3145 3143 3142 3139 3138 3136 3135 3133 3132 3130 3128 3126 3124 3122 3120 3118 3116 3115 3112 3109 3106 3102 3098 3094 3089 3085 3081 3077 3073 3069 3066 3062 3058 3055 3051 3048 3045 3042 3039 3036 3032 3029 3026 3025 3024 3021 3017 3012 3008 3005 3004 3003 3002 3003 3005 3006 3007 3007 3008 3011 3013 3016 3018 3020 3023 3024 3027 3028 3030 3032 3033 3034 3036 3037 3039 3040
3159 3158 3157 3155 3154 3152 3151 3149 3146 3145 3143 3141 3139 3138 3136 3135 3133 3131 3130 3128 3126 3125 3123 3121 3120 3117 3115 3111 3108 3104 3100 3096 3092 3088 3084 3080 3076 3072 3068 3064 3061 3057 3053 3050 3047 3044 3040 3037 3034 3031 3028 3024 3021 3019 3018 3015 3011 3008 3004 3001 3000 2999 3000 3001 3002 3004 3004 3005 3008 3010 3013 3015 3017 3020 3021 3023 3025 3027 3029 3031 3032 3035 3036 3037 3039
3160 3158 3157 3155 3154 3152 3150 3148 3146 3144 3142 3141 3140 3138 3137 3135 3134 3132 3131 3130 3128 3126 3124 3122 3119 3116 3113 3109 3106 3103 3099 3095 3091 3087 3083 3079 3075 3071 3067 3063 3060 3056 3052 3049 3046 3043 3040 3037 3033 3030 3026 3023 3019 3016 3014 3012 3010 3007 3003 3001 3000 2998 2997 2998 2999 3001 3002 3003 3005 3007 3010 3012 3014 3017 3019 3021 3023 3025 3027 3028 3030 3032 3034 3036 3038
3160 3158 3157 3155 3154 3152 3150 3148 3146 3144 3143 3142 3140 3139 3137 3136 3135 3133 3132 3130 3128 3126 3123 3121 3118 3115 3112 3109 3105 3102 3098 3094 3090 3086 3082 3078 3074 3070 3066 3062 3059 3055 3052 3048 3045 3042 3039 3035 3032 3028 3025 3021 3017 3014 3011 3008 3007 3005 3002 3000 2999 2997 2996 2995 2997 2998 2999 3001 3003 3005 3008 3010 3012 3015 3017 3019 3021 3023 3025 3026 3028 3031 3033 3035 3036
3160 3159 3157 3155 3154 3152 3150 3148 3146 3145 3144 3142 3140 3139 3138 3136 3135 3133 3131 3129 3127 3125 3123 3120 3118 3115 3111 3108 3105 3101 3098 3094 3090 3086 3081 3077 3073 3069 3065 3062 3058 3055 3051 3048 3044 3041 3038 3034 3031 3028 3024 3020 3016 3012 3009 3005 3003 3001 3000 2998 2997 2996 2995 2995 2995 2996 2996 2999 3001 3003 3005 3008 3011 3013 3014 3016 3019 3022 3023 3024 3026 3029 3031 3033 3035
3160 3159 3157 3156 3154 3152 3150 3148 3147 3146 3144 3142 3141 3139 3138 3137 3135 3133 3132 3130 3128 3125 3123 3120 3117 3115 3111 3108 3105 3102 3098 3094 3089 3084 3080 3075 3072 3068 3065 3061 3058 3054 3051 3047 3044 3040 3037 3033 3029 3026 3023 3019 3015 3012 3009 3005 3002 3000 2998 2996 2995 2994 2993 2993 2994 2994 2995 2996 2999 3002 3003 3006 3009 3010 3011 3014 3017 3020 3021 3022 3024 3027 3029 3032 3034
3160 3159 3157 3155 3154 3152 3150 3149 3147 3146 3144 3143 3141 3140 3139 3137 3136 3134 3132 3130 3128 3126 3123 3120 3117 3115 3112 3108 3105 3101 3097 3093 3088 3083 3079 3075 3071 3068 3064 3060 3057 3053 3050 3047 3044 3040 3036 3032 3028 3024 3021 3018 3015 3012 3009 3005 3002 3000 2998 2995 2993 2992 2991 2991 2992 2993 2994 2995 2997 3000 3002 3004 3007 3008 3010 3013 3016 3018 3019 3020 3022 3024 3027 3030 3032
3160 3159 3157 3156 3154 3153 3151 3149 3148 3146 3145 3143 3142 3140 3139 3138 3136 3134 3133 3130 3128 3126 3123 3120 3118 3115 3112 3108 3104 3100 3096 3092 3087 3082 3078 3075 3071 3067 3064 3060 3056 3053 3050 3047 3043 3039 3035 3030 3027 3023 3021 3017 3014 3011 3009 3006 3003 3001 2998 2995 2992 2991 2990 2990 2990 2990 2992 2994 2996 2998 3000 3003 3005 3007 3009 3011 3014 3016 3017 3017 3019 3022 3025 3029 3032